Temp
-4 -4 -4 -4 -4 -4 -3 -4 -4 -4 -4 -4 -5 -5 -6 -6 -6 -7 -7 -7 -8 -7 -7 -7 -6 -6 -6 -6 -6 -6 -6 -7 -7 -8 -9 -8 -8 -7 -7 -6 -6 -6 -5 -6 -6 -5 -5
-4 -4 -4 -4 -4 -3 -3 -4 -4 -4 -4 -4 -5 -5 -6 -6 -7 -7 -7 -7 -8 -8 -8 -7 -7 -6 -6 -6 -6 -7 -7 -7 -7 -8 -9 -9 -8 -8 -7 -7 -6 -6 -6 -6 -6 -6 -5
-4 -4 -4 -4 -4 -3 -3 -4 -4 -4 -4 -4 -5 -5 -6 -6 -7 -7 -7 -7 -7 -8 -8 -8 -8 -8 -6 -6 -7 -7 -7 -8 -8 -8 -9 -9 -9 -8 -7 -7 -6 -7 -6 -6 -6 -6 -5
-4 -4 -4 -4 -4 -3 -3 -3 -3 -4 -4 -4 -5 -6 -7 -7 -8 -8 -8 -8 -8 -8 -8 -8 -8 -8 -8 -8 -7 -7 -7 -8 -8 -8 -9 -9 -9 -8 -8 -7 -7 -7 -6 -6 -6 -6 -6
-4 -4 -4 -4 -4 -4 -4 -4 -3 -4 -4 -5 -6 -6 -7 -8 -8 -9 -8 -8 -8 -9 -8 -8 -8 -8 -8 -9 -8 -7 -7 -8 -8 -8 -9 -9 -9 -9 -8 -8 -7 -7 -7 -7 -7 -7 -6
-4 -4 -4 -4 -4 -4 -4 -4 -4 -4 -5 -5 -6 -7 -8 -9 -9 -9 -9 -9 -9 -9 -9 -9 -9 -8 -8 -9 -8 -7 -7 -8 -8 -8 -8 -10 -9 -9 -9 -8 -7 -7 -7 -7 -7 -6 -6
-4 -4 -4 -4 -4 -4 -4 -4 -4 -4 -5 -6 -7 -8 -9 -10 -10 -10 -10 -9 -9 -9 -9 -9 -9 -9 -9 -9 -9 -9 -8 -8 -8 -8 -9 -9 -9 -9 -9 -8 -8 -8 -7 -8 -7 -7 -6
-4 -4 -4 -4 -4 -4 -4 -4 -4 -5 -6 -7 -8 -9 -10 -10 -10 -11 -10 -10 -10 -10 -10 -10 -9 -9 -10 -10 -10 -10 -9 -8 -8 -9 -9 -9 -9 -9 -9 -8 -8 -8 -8 -8 -8 -7 -7
-4 -4 -4 -4 -4 -4 -4 -4 -5 -5 -6 -7 -9 -10 -10 -11 -11 -11 -11 -11 -11 -11 -10 -10 -10 -10 -10 -10 -10 -10 -11 -10 -9 -9 -9 -9 -9 -9 -9 -9 -9 -8 -8 -8 -8 -7 -7
-5 -5 -5 -5 -5 -4 -4 -5 -5 -6 -7 -8 -9 -10 -11 -11 -12 -12 -12 -12 -11 -11 -11 -11 -11 -11 -11 -11 -11 -10 -11 -11 -10 -9 -9 -9 -9 -9 -9 -8 -8 -8 -8 -8 -8 -8 -7
-5 -5 -5 -5 -4 -4 -5 -5 -6 -7 -8 -9 -10 -11 -12 -12 -12 -12 -12 -12 -12 -12 -12 -12 -12 -12 -11 -11 -11 -11 -11 -11 -11 -10 -10 -10 -9 -9 -9 -9 -9 -8 -9 -8 -8 -8 -8
-5 -5 -5 -4 -4 -5 -5 -6 -7 -8 -8 -9 -11 -12 -12 -13 -13 -13 -13 -13 -13 -13 -13 -13 -13 -13 -12 -12 -11 -11 -11 -11 -11 -11 -11 -10 -9 -9 -9 -9 -9 -9 -10 -9 -8 -8 -8
-5 -5 -5 -4 -4 -5 -6 -7 -7 -8 -9 -10 -12 -13 -13 -13 -13 -13 -13 -13 -14 -14 -14 -14 -13 -13 -13 -13 -12 -12 -12 -11 -12 -11 -11 -10 -10 -10 -10 -9 -9 -9 -10 -10 -9 -9 -8
-5 -5 -5 -5 -5 -6 -7 -7 -8 -9 -10 -11 -12 -13 -14 -14 -13 -13 -14 -14 -14 -15 -14 -14 -14 -13 -14 -14 -13 -13 -12 -12 -12 -12 -11 -11 -11 -11 -10 -10 -9 -9 -10 -9 -9 -9 -8
-5 -5 -5 -5 -6 -7 -7 -8 -8 -9 -11 -12 -12 -14 -14 -14 -14 -14 -14 -15 -15 -15 -15 -15 -14 -14 -14 -14 -14 -14 -13 -12 -12 -12 -12 -11 -11 -11 -11 -11 -10 -10 -10 -11 -10 -10 -9
-6 -5 -5 -6 -7 -7 -8 -8 -8 -9 -11 -12 -13 -14 -14 -14 -14 -14 -15 -16 -15 -15 -15 -15 -15 -14 -14 -14 -14 -15 -14 -13 -13 -13 -12 -12 -12 -12 -12 -11 -11 -10 -11 -10 -10 -10 -9
-6 -6 -6 -7 -7 -8 -8 -9 -9 -10 -12 -13 -14 -14 -14 -14 -14 -15 -15 -16 -16 -16 -16 -16 -15 -15 -15 -14 -14 -14 -14 -14 -14 -13 -13 -12 -12 -12 -12 -12 -12 -11 -11 -11 -11 -10 -9
-6 -7 -7 -7 -8 -9 -9 -9 -10 -12 -13 -13 -14 -14 -14 -14 -15 -15 -15 -15 -15 -15 -15 -15 -16 -16 -16 -16 -15 -15 -14 -15 -15 -14 -13 -13 -12 -13 -13 -12 -12 -13 -12 -12 -11 -10 -10
-7 -7 -8 -8 -9 -9 -9 -10 -11 -12 -13 -13 -14 -14 -15 -14 -14 -15 -15 -15 -15 -15 -15 -15 -16 -16 -16 -16 -16 -16 -16 -15 -15 -15 -14 -14 -13 -13 -13 -13 -13 -13 -13 -12 -12 -11 -11
-7 -8 -9 -9 -9 -9 -10 -10 -12 -12 -13 -14 -14 -15 -15 -14 -15 -15 -15 -15 -15 -15 -15 -15 -15 -15 -15 -15 -16 -16 -16 -15 -15 -15 -15 -15 -14 -14 -14 -14 -13 -13 -13 -12 -12 -12 -11
-8 -8 -9 -9 -9 -9 -10 -11 -12 -12 -13 -14 -15 -15 -15 -14 -14 -15 -15 -15 -15 -15 -15 -15 -15 -15 -16 -16 -16 -16 -16 -16 -15 -15 -15 -15 -15 -14 -14 -14 -14 -14 -13 -12 -12 -12 -12
-8 -9 -9 -10 -9 -10 -10 -11 -11 -12 -14 -14 -15 -15 -15 -15 -15 -15 -15 -15 -15 -15 -15 -15 -15 -15 -15 -15 -16 -16 -16 -15 -15 -15 -15 -15 -15 -14 -14 -15 -14 -14 -13 -13 -12 -12 -12
-9 -9 -10 -10 -10 -10 -10 -11 -11 -13 -14 -14 -15 -15 -15 -15 -15 -15 -15 -15 -15 -16 -16 -15 -15 -15 -15 -15 -15 -15 -15 -16 -16 -16 -16 -16 -15 -15 -15 -15 -14 -14 -13 -13 -13 -12 -12
-10 -10 -10 -10 -10 -10 -11 -11 -12 -13 -13 -14 -15 -16 -16 -16 -16 -15 -15 -16 -16 -16 -15 -15 -15 -15 -15 -16 -15 -15 -15 -15 -15 -16 -16 -16 -16 -15 -15 -15 -14 -14 -13 -13 -13 -12 -12
-10 -10 -10 -10 -10 -11 -11 -11 -12 -13 -14 -14 -15 -16 -16 -16 -16 -15 -16 -16 -15 -15 -15 -15 -15 -15 -16 -15 -16 -16 -16 -15 -15 -16 -16 -16 -16 -17 -16 -15 -14 -14 -14 -14 -13 -13 -13
-10 -10 -10 -10 -10 -11 -11 -12 -13 -13 -14 -15 -16 -16 -16 -16 -16 -16 -16 -15 -15 -15 -15 -15 -16 -16 -16 -16 -16 -16 -16 -16 -16 -16 -16 -16 -16 -16 -16 -15 -15 -15 -15 -14 -13 -13 -12
-10 -10 -10 -10 -10 -11 -12 -12 -13 -13 -14 -14 -16 -16 -16 -16 -16 -16 -15 -15 -15 -15 -16 -16 -16 -16 -16 -16 -16 -16 -16 -17 -16 -16 -16 -16 -16 -16 -16 -16 -15 -15 -15 -14 -14 -14 -14
-10 -10 -11 -10 -11 -11 -12 -12 -13 -13 -13 -14 -15 -15 -16 -15 -15 -15 -15 -15 -15 -15 -15 -16 -16 -16 -16 -16 -16 -17 -17 -17 -17 -17 -17 -17 -16 -16 -16 -15 -15 -15 -15 -14 -14 -15 -14
-11 -11 -11 -11 -11 -11 -11 -12 -13 -13 -14 -14 -14 -15 -15 -15 -15 -15 -15 -15 -15 -15 -15 -16 -16 -16 -16 -17 -18 -18 -18 -18 -18 -18 -18 -17 -17 -17 -16 -16 -15 -15 -15 -15 -15 -15 -15
Height
5882 5878 5874 5869 5864 5860 5856 5851 5846 5842 5837 5834 5829 5825 5821 5819 5818 5817 5817 5816 5815 5817 5819 5821 5823 5827 5830 5834 5838 5840 5844 5847 5851 5855 5861 5865 5869 5872 5874 5878 5881 5886 5889 5891 5894 5894 5894
5880 5876 5872 5867 5862 5858 5853 5849 5844 5840 5835 5830 5825 5821 5818 5814 5812 5811 5810 5811 5811 5811 5814 5815 5817 5819 5823 5828 5833 5836 5839 5843 5847 5851 5857 5862 5864 5867 5873 5877 5881 5885 5887 5891 5892 5895 5894
5879 5875 5870 5865 5860 5855 5850 5846 5840 5835 5830 5825 5820 5816 5812 5808 5806 5805 5804 5804 5805 5806 5807 5809 5812 5814 5816 5822 5827 5831 5834 5838 5842 5847 5852 5856 5859 5866 5871 5876 5881 5884 5887 5890 5893 5895 5895
5877 5873 5868 5863 5858 5853 5848 5842 5837 5831 5825 5819 5814 5810 5806 5802 5801 5799 5798 5798 5797 5799 5802 5804 5806 5809 5812 5815 5819 5824 5829 5834 5837 5843 5848 5853 5856 5862 5867 5875 5879 5883 5887 5890 5892 5894 5894
5875 5870 5865 5861 5856 5850 5844 5838 5831 5825 5819 5812 5807 5802 5799 5797 5794 5793 5792 5791 5792 5793 5795 5798 5801 5803 5808 5810 5811 5817 5823 5828 5833 5837 5843 5849 5854 5857 5867 5872 5877 5881 5884 5886 5890 5892 5894
5872 5867 5862 5857 5852 5846 5839 5833 5826 5818 5811 5806 5801 5795 5792 5789 5788 5786 5787 5787 5787 5788 5790 5792 5794 5798 5803 5806 5807 5810 5817 5823 5828 5833 5839 5846 5851 5855 5863 5869 5875 5878 5881 5884 5887 5891 5892
5870 5865 5860 5853 5847 5841 5834 5827 5820 5812 5805 5800 5793 5789 5786 5785 5782 5780 5782 5782 5784 5783 5784 5787 5790 5792 5797 5801 5805 5808 5812 5818 5824 5829 5835 5842 5849 5855 5860 5865 5870 5873 5878 5881 5885 5889 5891
5867 5862 5856 5850 5843 5835 5828 5821 5813 5806 5798 5792 5786 5782 5779 5777 5776 5775 5777 5776 5776 5776 5778 5781 5785 5788 5792 5797 5801 5807 5811 5815 5820 5826 5833 5840 5847 5851 5855 5860 5865 5870 5875 5879 5883 5885 5888
5862 5857 5851 5844 5837 5830 5822 5814 5806 5798 5791 5785 5781 5776 5773 5772 5771 5772 5771 5770 5770 5771 5773 5775 5780 5784 5787 5792 5796 5803 5808 5812 5816 5822 5830 5838 5842 5846 5850 5854 5861 5867 5872 5876 5879 5882 5884
5858 5852 5846 5839 5831 5823 5815 5807 5799 5792 5785 5780 5775 5771 5769 5767 5767 5766 5766 5766 5767 5767 5769 5772 5776 5780 5783 5787 5792 5798 5802 5808 5813 5818 5825 5832 5836 5840 5845 5850 5858 5864 5868 5869 5873 5877 5879
5853 5847 5841 5833 5824 5816 5809 5801 5793 5786 5779 5774 5770 5766 5764 5761 5762 5763 5763 5763 5764 5765 5766 5769 5771 5774 5778 5783 5789 5793 5799 5805 5809 5813 5821 5827 5830 5834 5840 5848 5853 5859 5862 5865 5868 5872 5875
5848 5842 5834 5827 5818 5810 5803 5795 5787 5779 5773 5767 5764 5761 5760 5760 5759 5760 5760 5761 5762 5764 5764 5766 5768 5771 5774 5779 5784 5789 5795 5800 5804 5806 5813 5818 5825 5831 5839 5842 5847 5852 5855 5860 5865 5866 5870
5842 5836 5828 5821 5812 5805 5796 5788 5781 5773 5767 5763 5760 5757 5756 5756 5756 5757 5758 5760 5762 5761 5764 5766 5767 5769 5772 5777 5781 5786 5792 5797 5802 5806 5810 5814 5821 5828 5831 5836 5841 5846 5849 5854 5860 5861 5867
5836 5830 5823 5815 5806 5799 5791 5783 5775 5768 5763 5758 5756 5754 5754 5753 5754 5755 5757 5759 5759 5761 5765 5766 5768 5769 5771 5773 5778 5784 5787 5791 5796 5804 5807 5810 5818 5824 5827 5833 5839 5844 5846 5850 5854 5859 5867
5831 5824 5817 5809 5801 5793 5785 5778 5770 5763 5758 5755 5752 5751 5751 5751 5752 5754 5756 5756 5759 5761 5765 5767 5769 5770 5772 5775 5779 5781 5785 5787 5790 5799 5804 5806 5812 5817 5822 5825 5832 5837 5839 5847 5851 5854 5859
5826 5819 5812 5804 5796 5788 5780 5773 5765 5758 5753 5751 5749 5749 5749 5750 5751 5753 5754 5756 5758 5760 5764 5767 5769 5772 5773 5775 5778 5780 5782 5785 5789 5795 5801 5806 5810 5813 5816 5821 5825 5831 5838 5840 5842 5848 5853
5820 5813 5806 5799 5791 5784 5776 5768 5761 5753 5750 5749 5748 5747 5748 5750 5751 5753 5754 5756 5757 5760 5764 5767 5769 5771 5774 5775 5777 5780 5782 5784 5786 5792 5797 5801 5806 5810 5813 5816 5820 5825 5829 5834 5839 5844 5847
5815 5808 5801 5794 5787 5780 5772 5765 5757 5750 5749 5748 5747 5747 5748 5750 5751 5753 5755 5756 5758 5758 5761 5763 5766 5768 5771 5774 5776 5778 5779 5781 5784 5787 5792 5797 5803 5806 5811 5812 5816 5820 5824 5828 5831 5838 5843
5810 5803 5797 5790 5782 5776 5768 5761 5754 5748 5746 5745 5746 5748 5748 5750 5752 5754 5756 5756 5757 5758 5759 5761 5764 5766 5769 5770 5773 5775 5776 5779 5782 5784 5787 5791 5796 5802 5805 5809 5811 5814 5819 5823 5826 5832 5836
5805 5799 5793 5786 5778 5772 5764 5758 5752 5748 5744 5743 5744 5746 5750 5751 5753 5755 5757 5758 5758 5758 5759 5762 5764 5765 5765 5765 5767 5771 5774 5776 5778 5781 5783 5786 5790 5794 5798 5800 5806 5809 5812 5817 5821 5826 5830
5800 5794 5788 5781 5774 5768 5761 5756 5750 5745 5742 5742 5744 5746 5750 5753 5754 5755 5758 5760 5759 5759 5760 5761 5763 5764 5763 5763 5763 5766 5770 5772 5773 5775 5777 5780 5784 5788 5790 5794 5799 5802 5806 5811 5817 5821 5825
5796 5789 5784 5777 5770 5765 5759 5752 5747 5743 5741 5741 5744 5745 5749 5752 5754 5756 5757 5758 5758 5758 5759 5759 5760 5760 5760 5761 5762 5763 5765 5766 5767 5769 5770 5772 5777 5780 5784 5787 5792 5795 5800 5806 5811 5815 5819
5791 5785 5779 5773 5767 5761 5755 5750 5745 5742 5741 5740 5742 5746 5748 5750 5752 5754 5756 5756 5757 5757 5757 5757 5758 5758 5759 5760 5760 5761 5762 5763 5763 5764 5765 5766 5768 5771 5776 5781 5783 5791 5795 5799 5804 5808 5814
5785 5780 5775 5769 5763 5757 5752 5747 5743 5742 5740 5740 5741 5744 5747 5750 5752 5753 5754 5755 5754 5753 5753 5753 5755 5755 5756 5756 5757 5758 5758 5759 5759 5760 5761 5762 5764 5765 5769 5772 5777 5784 5786 5792 5797 5802 5807
5780 5775 5770 5765 5759 5753 5749 5745 5742 5740 5739 5739 5740 5743 5746 5749 5751 5751 5752 5752 5752 5751 5750 5750 5750 5750 5750 5750 5751 5752 5753 5754 5754 5755 5758 5759 5761 5762 5762 5766 5772 5776 5777 5782 5788 5794 5797
5775 5770 5765 5760 5754 5750 5745 5741 5739 5738 5737 5736 5739 5743 5746 5749 5750 5750 5750 5749 5749 5749 5748 5748 5746 5746 5746 5745 5745 5745 5746 5747 5748 5750 5752 5754 5756 5758 5760 5763 5766 5769 5773 5777 5782 5788 5791
5770 5765 5761 5755 5751 5746 5742 5739 5737 5736 5735 5736 5739 5741 5745 5747 5748 5748 5747 5747 5747 5746 5746 5745 5743 5741 5740 5738 5738 5739 5739 5740 5741 5743 5745 5747 5750 5752 5754 5757 5760 5763 5766 5772 5776 5786 5783
5765 5760 5756 5751 5747 5743 5738 5736 5734 5735 5736 5738 5740 5741 5745 5746 5747 5746 5746 5746 5745 5743 5742 5741 5740 5737 5735 5733 5732 5730 5730 5731 5733 5736 5738 5741 5743 5746 5749 5752 5755 5759 5762 5765 5769 5773 5776
5759 5755 5751 5747 5744 5741 5737 5735 5734 5736 5738 5740 5741 5742 5744 5745 5745 5745 5745 5744 5742 5741 5739 5737 5735 5733 5730 5727 5725 5724 5723 5723 5725 5728 5731 5734 5737 5740 5744 5746 5747 5749 5755 5758 5761 5763 5768
Wind_Speed
20 22 24 26 31 33 35 38 40 37 34 29 24 22 22 21 20 19 18 19 21 27 28 28 28 30 28 26 24 23 23 23 25 31 29 25 22 22 21 18 17 10 9 7 6 12 3
19 22 25 27 31 33 36 39 41 41 39 35 30 24 23 22 20 20 19 20 19 23 28 28 28 29 30 29 27 25 24 23 24 30 29 27 27 27 24 20 18 12 11 9 5 7 2
20 23 26 28 30 33 37 40 42 43 40 39 33 27 23 23 21 21 21 20 21 20 25 29 28 29 30 30 28 29 27 26 25 30 31 31 30 29 26 22 19 16 14 10 8 8 5
22 24 27 29 32 34 39 41 44 45 43 38 33 27 25 24 22 20 21 19 20 20 22 26 27 29 30 29 29 30 30 30 28 27 31 33 34 32 30 23 21 18 16 13 12 11 8
24 27 30 32 35 38 41 43 45 46 43 38 32 27 26 25 23 22 21 20 20 19 23 24 24 27 29 30 33 32 33 33 32 31 35 34 33 33 27 24 21 18 17 14 13 15 12
27 29 32 35 37 41 42 44 47 46 42 37 32 29 26 24 24 22 21 21 18 19 21 25 25 25 27 32 34 34 34 35 34 33 33 35 32 30 26 24 21 20 18 17 16 18 15
28 31 33 37 40 42 42 46 47 46 43 37 32 30 26 24 24 22 19 17 17 18 20 24 26 24 24 29 34 34 35 36 36 36 33 34 32 26 23 24 24 24 19 16 16 16 16
29 31 34 38 41 43 45 48 48 46 40 35 33 30 25 23 23 20 16 15 15 18 20 24 27 26 22 24 30 32 31 34 35 36 33 33 33 30 28 26 26 26 22 18 16 19 21
31 33 36 40 44 43 46 49 47 44 37 35 31 27 23 22 22 18 13 13 16 17 19 24 25 25 26 27 29 31 29 29 32 33 32 30 33 35 33 31 29 27 24 21 22 21 20
32 34 38 42 41 44 49 50 48 41 36 33 28 24 21 21 19 13 11 11 12 15 16 20 23 25 27 28 29 31 30 29 31 30 30 31 34 36 38 36 30 28 27 28 26 25 24
31 35 40 41 44 48 51 48 43 38 36 29 24 20 19 18 15 10 8 8 10 12 13 16 22 25 27 30 28 30 33 31 30 30 30 30 35 36 37 34 34 32 32 31 30 27 27
33 37 39 42 47 49 49 43 38 37 34 26 20 18 18 14 12 7 5 6 12 13 13 15 20 23 26 27 30 32 33 33 35 35 33 35 36 37 32 35 35 36 37 35 32 32 32
34 39 40 45 49 50 46 40 37 35 31 23 17 17 13 11 10 5 3 9 14 14 14 14 19 23 23 21 27 29 29 32 34 33 32 33 33 33 34 36 37 37 40 39 35 39 34
36 40 42 46 49 48 43 38 37 35 29 20 17 15 9 8 8 2 2 11 14 14 13 15 15 19 21 22 22 25 28 32 35 33 31 32 30 27 31 32 34 34 41 41 41 38 30
39 40 43 47 47 45 41 39 37 34 25 17 16 11 7 8 6 1 5 12 11 14 13 14 12 16 19 20 21 25 28 32 36 34 35 34 30 30 31 32 34 37 43 42 39 36 34
39 41 43 45 45 42 41 39 38 35 21 15 13 5 9 9 5 2 9 11 10 10 11 13 15 13 13 14 20 22 25 29 30 30 31 33 31 33 32 33 36 35 37 43 44 42 38
41 42 42 44 42 41 40 40 38 30 18 15 9 7 8 8 5 6 9 8 7 12 13 11 14 14 13 15 16 20 23 26 26 26 29 34 33 34 35 35 36 36 37 40 37 41 41
41 41 42 42 40 40 41 40 34 23 18 15 8 6 9 9 9 7 8 8 7 12 12 12 15 15 14 15 13 15 19 21 22 21 27 31 33 31 35 36 38 39 40 40 42 40 41
41 40 40 39 40 39 40 37 30 20 16 14 6 7 10 9 8 8 7 4 7 9 9 8 13 16 16 19 19 20 20 19 20 20 23 27 33 31 35 38 38 42 43 42 43 40 40
41 39 38 37 39 38 37 33 26 21 17 11 3 7 10 9 6 5 4 2 1 2 4 8 8 6 9 16 25 24 22 19 20 22 24 24 27 32 36 40 41 42 44 46 46 44 43
40 38 36 37 38 36 34 31 25 23 13 5 4 8 9 8 6 6 8 4 1 5 4 6 8 6 3 5 13 21 23 23 23 26 25 25 25 26 33 41 41 42 45 43 42 47 44
38 36 35 37 37 34 32 28 24 16 9 3 4 7 10 11 10 7 6 5 2 4 5 4 1 1 6 5 7 13 17 17 15 24 27 22 26 30 31 38 42 46 45 42 39 39 41
37 35 34 36 36 32 29 25 21 12 4 6 7 9 11 12 9 7 6 6 6 9 9 10 10 10 6 4 10 12 15 16 14 19 20 17 18 31 32 35 41 40 47 44 39 37 35
34 33 34 36 34 31 27 23 17 11 5 7 9 11 13 12 8 9 9 11 11 13 12 10 8 13 14 13 10 10 12 17 17 18 16 15 14 19 29 36 39 38 32 46 44 39 39
32 32 33 36 33 30 25 21 13 11 9 7 9 11 10 8 8 9 10 11 11 11 11 13 13 14 14 15 16 16 16 15 18 19 17 20 17 17 16 27 33 35 40 36 38 44 39
30 31 33 34 32 29 23 18 12 10 9 7 5 7 7 7 7 9 10 9 7 8 10 11 12 13 14 16 18 19 19 18 20 18 22 21 21 22 23 24 27 27 33 37 32 32 37
28 30 32 32 29 28 24 15 11 8 3 8 10 9 9 6 7 6 5 6 10 12 14 14 16 17 20 23 24 24 23 21 22 21 22 20 23 26 26 23 24 22 26 33 39 34 34
28 30 30 29 27 25 18 10 9 4 15 11 9 7 6 6 3 3 6 9 10 10 12 12 13 14 17 21 25 27 28 26 25 23 22 22 22 22 25 29 29 25 22 23 27 31 38
28 29 28 25 23 19 13 8 4 13 11 11 10 8 6 3 2 4 6 8 9 11 13 13 15 15 18 18 14 16 21 24 27 25 23 23 22 22 22 20 19 22 27 24 23 25 39
Wind_Direction
18 12 7 8 8 4 360 358 358 356 354 347 335 323 315 309 300 295 283 269 256 244 236 232 236 241 245 239 234 228 227 228 219 214 206 202 207 210 214 211 230 214 213 204 267 313 125
13 8 4 3 2 356 352 352 352 353 350 346 337 325 313 305 295 283 278 273 268 248 243 237 227 229 234 239 233 224 220 224 222 211 206 203 207 209 212 210 219 224 228 213 236 293 158
3 358 355 357 354 350 348 347 346 345 345 342 334 322 307 300 294 278 269 263 262 253 241 241 236 225 222 228 225 224 217 216 223 211 202 204 211 211 211 206 209 213 219 229 235 240 154
357 353 350 350 347 345 343 342 340 340 338 336 330 318 304 296 293 281 268 262 252 247 240 239 236 232 225 209 210 218 216 214 215 218 205 207 212 215 211 207 209 212 214 216 223 249 192
351 349 348 344 341 340 338 337 336 335 335 333 326 313 302 296 290 279 269 258 251 240 233 230 230 228 231 214 204 210 213 214 213 213 210 208 216 221 211 211 210 214 211 219 217 208 208
347 343 341 339 337 336 335 334 334 335 333 329 322 310 301 293 290 281 272 266 254 245 235 225 224 224 227 222 209 207 209 212 211 216 216 207 213 225 219 213 209 216 216 216 222 220 231
337 337 336 335 335 333 331 331 335 333 332 328 317 308 302 298 292 283 275 269 255 240 235 228 224 220 219 224 219 209 205 209 212 215 214 213 215 220 223 216 211 215 215 219 219 231 225
331 333 332 332 333 330 329 333 335 334 329 323 314 312 305 295 293 288 280 265 249 237 229 224 221 209 206 218 222 216 211 208 211 215 213 211 213 218 220 216 212 214 208 217 219 215 218
329 331 330 328 329 328 330 334 335 332 324 319 319 313 301 296 297 294 278 254 243 234 224 221 220 210 198 205 215 215 214 213 208 212 211 211 211 217 220 220 216 214 211 211 218 215 220
327 329 328 329 329 328 333 334 336 330 325 323 321 313 299 295 296 288 268 257 246 234 220 215 211 207 200 201 205 214 208 210 210 208 207 207 209 215 221 223 219 217 216 218 220 216 227
326 328 328 330 330 333 334 336 336 331 328 325 319 307 298 297 299 280 267 255 230 222 218 208 201 201 202 200 201 208 211 208 203 205 205 204 208 213 218 221 220 219 219 224 226 226 228
327 328 328 329 331 334 336 339 336 331 326 321 314 305 303 306 293 273 263 228 207 206 193 197 195 193 200 205 203 203 207 206 208 200 198 205 209 215 213 219 221 216 217 222 226 234 236
328 329 329 331 332 335 339 340 335 329 327 321 316 307 305 299 273 261 239 195 199 205 194 191 194 192 194 197 208 208 209 209 216 209 198 204 208 211 212 215 219 218 220 222 224 232 240
327 329 329 332 336 337 341 340 336 333 331 321 317 313 296 277 261 249 249 198 204 196 194 197 193 195 187 189 198 206 208 209 214 215 203 203 206 209 213 218 222 221 224 228 227 236 243
327 328 330 334 337 340 342 341 337 336 331 320 316 314 275 247 236 236 224 192 174 191 211 199 215 193 194 185 194 200 207 214 214 212 211 203 203 204 209 209 216 217 219 224 231 233 231
330 331 334 337 340 343 343 342 338 335 328 312 313 300 262 224 202 208 183 189 192 191 199 199 200 206 213 210 195 197 212 220 223 216 214 212 206 202 205 210 217 220 221 226 229 233 231
330 335 338 339 342 343 343 343 341 336 322 315 323 263 227 206 190 169 173 178 212 221 207 221 205 211 205 212 225 210 216 224 230 225 221 217 209 206 208 207 216 218 219 222 227 231 233
330 335 339 340 343 344 344 346 344 338 337 332 309 246 208 202 183 172 172 197 219 223 224 215 216 225 221 223 222 224 238 229 230 230 220 221 216 212 212 213 212 216 222 225 231 233 232
331 336 339 341 345 346 344 346 347 351 347 330 302 235 202 200 175 181 182 240 272 261 242 221 214 223 238 241 232 220 237 231 242 237 231 220 215 209 213 220 219 217 220 227 232 233 232
334 336 340 342 346 346 343 347 349 347 335 321 273 225 204 195 177 192 204 147 89 214 226 200 206 223 241 238 234 238 242 255 258 248 249 242 228 216 210 218 222 224 222 224 230 237 240
333 336 340 342 345 344 344 345 344 341 332 300 193 215 216 201 213 212 212 191 162 77 103 175 200 185 186 229 214 227 237 247 253 252 255 251 240 230 219 216 219 226 230 228 230 235 241
333 337 340 341 344 342 345 344 343 346 340 270 215 220 216 211 224 238 236 199 258 337 329 318 307 214 183 181 205 207 231 242 258 255 252 244 231 238 231 232 221 221 230 234 233 236 239
331 335 339 340 342 341 343 342 341 345 339 236 210 216 217 212 231 245 243 264 294 317 304 281 289 300 297 264 221 220 233 243 238 250 227 245 247 222 222 231 232 227 231 233 236 236 239
328 333 336 340 339 338 341 341 336 336 318 233 220 219 229 221 232 249 272 293 289 286 281 288 276 270 282 284 271 253 251 249 239 247 246 244 251 233 212 224 225 231 232 234 234 238 238
326 331 335 338 336 336 339 337 330 325 302 265 233 230 235 219 248 271 271 271 277 296 291 293 290 281 272 268 269 263 257 251 249 239 232 239 236 237 223 227 230 230 236 245 233 235 237
325 331 335 337 332 335 335 330 322 314 278 268 250 223 209 220 260 262 267 277 293 300 295 290 285 283 280 276 273 267 259 252 247 246 242 240 230 238 232 229 231 233 234 242 249 241 244
326 330 334 334 331 333 329 323 318 308 274 134 137 150 162 241 254 250 272 287 300 303 300 295 289 283 280 276 271 266 259 252 246 244 248 244 239 238 240 235 235 234 234 229 234 243 237
324 328 333 332 331 333 331 316 315 138 125 125 131 142 183 195 185 244 291 304 307 309 311 307 298 288 285 279 275 267 256 248 243 240 240 241 240 237 238 242 248 240 236 239 234 231 224
323 326 330 329 329 336 333 314 152 135 123 132 133 148 163 182 313 343 348 328 330 342 340 329 324 320 319 310 299 288 274 259 245 236 233 238 238 235 236 240 245 243 231 234 237 228 223